This is the latest recevied weather packets stored in our database for station/object N9OJR. If no packets are shown the sender has not sent any weather packets the latest 10 day(s).
| Time | Temp. | Humidity | Pressure | Rain* | Wind** | Luminosity | Snow |
|---|---|---|---|---|---|---|---|
| 1777836483 | 15.56° C | 44% | 1010.7 hPa | 0 mm | - | 708 W/m² | - |
| 1777836178 | 15° C | 46% | 1011 hPa | 0 mm | - | 265 W/m² | - |
| 1777835875 | 15.56° C | 43% | 1010.9 hPa | 0 mm | - | 257 W/m² | - |
| 1777835572 | 15.56° C | 43% | 1010.8 hPa | 0 mm | - | 850 W/m² | - |
| 1777835269 | 15° C | 48% | 1011.1 hPa | 0 mm | - | 819 W/m² | - |
| 1777834966 | 15° C | 45% | 1011.1 hPa | 0 mm | - | 300 W/m² | - |
| 1777834663 | 15.56° C | 44% | 1011.2 hPa | 0 mm | - | 303 W/m² | - |
| 1777834358 | 16.11° C | 45% | 1011.1 hPa | 0 mm | - | 776 W/m² | - |
| 1777834053 | 15.56° C | 48% | 1011.3 hPa | 0 mm | - | 830 W/m² | - |
| 1777833750 | 15.56° C | 45% | 1011.3 hPa | 0 mm | - | 222 W/m² | - |
| 1777833446 | 15° C | 45% | 1011.5 hPa | 0 mm | - | 263 W/m² | - |
| 1777833143 | 15.56° C | 43% | 1011.4 hPa | 0 mm | - | 325 W/m² | - |
| 1777832841 | 15.56° C | 44% | 1011.6 hPa | 0 mm | - | 737 W/m² | - |
| 1777832540 | 15.56° C | 44% | 1011.6 hPa | 0 mm | - | 203 W/m² | - |
| 1777832236 | 15.56° C | 43% | 1011.8 hPa | 0 mm | - | 741 W/m² | - |
| 1777831933 | 16.11° C | 47% | 1011.5 hPa | 0 mm | - | 707 W/m² | - |
| 1777831629 | 15° C | 49% | 1011.5 hPa | 0 mm | - | 754 W/m² | - |
| 1777831328 | 15.56° C | 46% | 1011.5 hPa | 0 mm | - | 698 W/m² | - |
| 1777831024 | 15° C | 43% | 1011.7 hPa | 0 mm | - | 365 W/m² | - |
| 1777830722 | 15.56° C | 47% | 1011.7 hPa | 0 mm | - | 827 W/m² | - |
| 1777830418 | 15.56° C | 46% | 1012 hPa | 0 mm | - | 844 W/m² | - |
| 1777830116 | 15.56° C | 47% | 1012 hPa | 0 mm | - | 857 W/m² | - |
| 1777829811 | 15° C | 51% | 1011.7 hPa | 0 mm | - | 255 W/m² | - |
| 1777829507 | 14.44° C | 48% | 1011.9 hPa | 0 mm | - | 253 W/m² | - |
| 1777829204 | 15° C | 47% | 1012 hPa | 0 mm | - | 161 W/m² | - |
* Rain latest hour (hover to see other rain measurements)
** Current wind speed in m/s (hover to see current wind gust speed)